This is the latest recevied weather packets stored in our database for station/object KC5TIL-3. If no packets are shown the sender has not sent any weather packets the latest 10 day(s).
| Time | Temp. | Humidity | Pressure | Rain* | Wind** | Luminosity | Snow |
|---|---|---|---|---|---|---|---|
| 1787545882 | 34.44° C | 11% | 1009.8 hPa | 0 mm | 3.13 m/s, 167° | - | - |
| 1787545570 | 34.44° C | 11% | 1009.8 hPa | 0 mm | 3.13 m/s, 188° | - | - |
| 1787545272 | 34.44° C | 11% | 1009.8 hPa | 0 mm | 3.58 m/s, 215° | - | - |
| 1787544974 | 35° C | 11% | 1009.8 hPa | 0 mm | 4.47 m/s, 201° | - | - |
| 1787544673 | 35° C | 11% | 1009.8 hPa | 0 mm | 3.13 m/s, 212° | - | - |
| 1787544374 | 35° C | 11% | 1009.8 hPa | 0 mm | 3.13 m/s, 203° | - | - |
| 1787544076 | 35° C | 11% | 1010.8 hPa | 0 mm | 4.02 m/s, 216° | - | - |
| 1787543770 | 35° C | 11% | 1010.8 hPa | 0 mm | 3.13 m/s, 206° | - | - |
| 1787543472 | 35° C | 11% | 1010.8 hPa | 0 mm | 3.58 m/s, 166° | - | - |
| 1787543174 | 35° C | 11% | 1010.8 hPa | 0 mm | 3.58 m/s, 204° | - | - |
| 1787542873 | 35° C | 11% | 1010.8 hPa | 0 mm | 3.13 m/s, 151° | - | - |
| 1787542574 | 35° C | 11% | 1010.8 hPa | 0 mm | 2.68 m/s, 153° | - | - |
| 1787542276 | 35° C | 11% | 1009.8 hPa | 0 mm | 2.68 m/s, 184° | - | - |
| 1787541975 | 35° C | 11% | 1009.8 hPa | 0 mm | 2.24 m/s, 170° | - | - |
| 1787541677 | 35.56° C | 11% | 1009.8 hPa | 0 mm | 3.13 m/s, 210° | - | - |
| 1787541379 | 35.56° C | 11% | 1009.8 hPa | 0 mm | 3.13 m/s, 124° | - | - |
| 1787541077 | 35.56° C | 11% | 1009.8 hPa | 0 mm | 3.13 m/s, 210° | - | - |
| 1787540774 | 35.56° C | 11% | 1009.8 hPa | 0 mm | 2.24 m/s, 184° | - | - |
| 1787540476 | 36.11° C | 11% | 1009.8 hPa | 0 mm | 3.58 m/s, 143° | - | - |
| 1787540170 | 36.11° C | 11% | 1009.8 hPa | 0 mm | 2.24 m/s, 121° | - | - |
| 1787539872 | 36.11° C | 11% | 1009.8 hPa | 0 mm | 3.58 m/s, 198° | - | - |
| 1787539574 | 36.11° C | 11% | 1009.8 hPa | 0 mm | 3.13 m/s, 216° | - | - |
| 1787539272 | 36.67° C | 10% | 1009.8 hPa | 0 mm | 3.58 m/s, 189° | - | - |
| 1787538974 | 36.67° C | 10% | 1009.8 hPa | 0 mm | 1.79 m/s, 181° | - | - |
| 1787538676 | 36.67° C | 10% | 1009.8 hPa | 0 mm | 2.24 m/s, 142° | - | - |
* Rain latest hour (hover to see other rain measurements)
** Current wind speed in m/s (hover to see current wind gust speed)